Location: Krishnamma Banjar
(17.2175°N, 80.5166°E)
Time: 10:06:50
(UTC+00:00)

Intelsat 5-3 Rocket - Pass Details

Date: 03 August 2024
Orbit: 281 x 5254 km, 23.5° (Epoch: 14 September)

Event Time Altitude Azimuth Distance (km) Brightness Sun altitude
Rises 15:05:38 0° 285° (WNW) 5,232 8.5 -26.1°
Reaches altitude 10° 15:10:25 10° 289° (WNW) 3,385 7.3 -27.1°
Enters shadow 15:17:19 52° 350° (N) 862 3.4 -28.5°
